CZ-6A DEB, 60960

Orbit data source: Space-Track

CZ-6A DEB, 60960 is space debris in LEO originally from a launch on Tue, 06 Aug 2024 UTC launched from the Taiyaun Space Center, China (TSC). Debris objects in space refer to the collection of defunct objects orbiting the Earth. Examples of debris include non-operational satellites, rocket bodies, and fragments generated from explosions, collisions, or faulty payload assembly.

Loading next visibility...
Identifier
60960, 2024-140LK
Orbit
LEO
Country
Flag of CNCN / PRC
Related business
Manufacturer
SAST
Mission
Spacecraft
Bus & Motor
Unknown
Mass
Unknown
Launch date (UTC)
2024-08-06 (2 years ago)
Launch vehicle
Unknown
Launch site
Taiyaun Space Center, China (TSC)
Object type
Payload
Rocket body
Debris
Shape & HBR
Unknown shape, 0.2 m
Radar Cross Section
Medium (>0.1 m² and <1 m²)

Expand to show TLE details & history
Last TLE update: 14 hours ago

TLE from 14 hours ago
0 CZ-6A DEB
1 60960U 24140LK  26171.26078493  .00000612  00000-0  27350-3 0  9997
2 60960  89.0768 280.4222 0049488 152.8409 207.5387 14.20777708 95024
Epoch: 2026-06-20T06:15Z
TLE epoch observation values (Epoch: 2026-06-20T06:15:31.817Z)
Latitude
-0.00001°
Longitude
-81.93832°
Altitude
857.421 km
Speed
7.407 km/s
True Right ascension
18h 41m 41s
True Declination
0° 00' 00"
Sunlit
Object was in full shadow at epoch
Visualization orbit readout
Latitude
Unknown
Longitude
Unknown
Altitude
Unknown
Speed
Unknown
Apparent Right ascension
Unknown
Apparent Declination
Unknown
Sunlit
N/A
Visualization observer readout
Local Sidereal Time
07:21:00
Azimuth
Unknown
Elevation
Unknown
Doppler factor
Unknown
Orbital elements
Apogee altitude
855.294 km
Perigee altitude
784.053 km
Semi-major axis
7,197.81 km
Eccentricity
0.00495
Inclination
89.0768°
RAAN
280.4222°
Arg. of periapsis
152.8409°
True anomaly
207.27794°
Mean anomaly
207.5387°
Eccentric anomaly
207.40818°
Mean motion
3.55421 °/min
Orbital period
101.29 mins
BSTAR
0.0002735
Loading maneuver chart data...
Computing Atmospheric mass density...
Loading historical data...
Loading historical data...
Loading historical data...
Loading historical data...
Loading historical data...
Loading historical data...
Loading historical data...

Documentation

Showing up to 5 results
|